Location: Haliburton Scout Reserve
(45.0900°N, 78.3200°W)
Time: 11:03:49
(UTC-04:00)

S-56A Canister/Altair - Pass Details

Date: 30 January 2023
Orbit: 638 x 2493 km, 38.9° (Epoch: 25 March)

Event Time Altitude Azimuth Distance (km) Brightness Sun altitude
Rises 18:54:41 0° 272° (W) 4,372 13.0 -17.2°
Reaches altitude 10° 18:58:23 10° 256° (WSW) 3,705 12.3 -17.8°
Maximum altitude 19:04:48 20° 215° (SW) 3,474 11.3 -19.0°
Drops below altitude 10° 19:12:42 10° 176° (S) 4,675 11.5 -20.3°
Sets 19:18:19 0° 162° (SSE) 5,929 11.9 -21.3°
